Location: Saint-Hippolyte
(43.6394°N, 4.7559°E)
Time: 15:32:36
(UTC+00:00)

Cosmos 2082 - Pass Details

Date: 24 October 2020
Orbit: 832 x 857 km, 71.0° (Epoch: 24 November)

Event Time Altitude Azimuth Distance (km) Brightness Sun altitude
Rises 19:22:44 0° 334° (NNW) 3,435 7.4 -29.5°
Reaches altitude 10° 19:25:11 10° 334° (NNW) 2,496 6.6 -29.9°
Enters shadow 19:29:55 62° 325° (NW) 963 4.0 -30.8°
